AirNav   Air Wisconsin Airman Trainee
 
 908 users online  

5J5 Holly Hill Airport
Holly Hill, South Carolina, USA

GOING TO HOLLY HILL?


FAA INFORMATION EFFECTIVE 28 MARCH 2019

Location

FAA Identifier: 5J5
Lat/Long: 33-18-01.5000N / 080-23-39.6000W
33-18.025000N / 080-23.660000W
33.3004167 / -80.3943333
(estimated)
Elevation: 96 ft. / 29 m (estimated)
Variation: 05W (1985)
From city: 2 miles SE of HOLLY HILL, SC
Time zone: UTC -4 (UTC -5 during Standard Time)
Zip code: 29059

Airport Operations

Airport use: Open to the public
Control tower: no
ARTCC: JACKSONVILLE CENTER
FSS: ANDERSON FLIGHT SERVICE STATION
NOTAMs facility: AND (NOTAM-D service available)
Attendance: UNATNDD
Wind indicator: yes
Segmented circle: no

Airport Communications

CTAF: 122.9
WX AWOS-3 at DYB (15 nm S): 119.575 (843-821-8403)
WX AWOS-3 at MKS (19 nm E): 119.175 (843-761-1486)
WX AWOS-3 at MNI (20 nm NE): 120.175 (803-478-6060)

Nearby radio navigation aids

VOR radial/distance  VOR name  Freq  Var
VANr171/10.8VANCE VORTAC110.4006W
CHSr329/30.2CHARLESTON VORTAC113.5005W

 
NDB name  Hdg/Dist  Freq  Var  ID
DORCHESTER COUNTY345/15.536507WDYB -.. -.-- -...
MANNING215/19.738106WMNI -- -. ..

Airport Services

Parking: tiedowns
Airframe service: NONE
Powerplant service: NONE
Bottled oxygen: NONE
Bulk oxygen: NONE

Runway Information

Runway 4/22

Dimensions: 2900 x 150 ft. / 884 x 46 m
Surface: turf, in good condition
RUNWAY 4  RUNWAY 22
Latitude: 33-17.849478N33-18.200223N
Longitude: 080-23.853050W080-23.465788W
Elevation: 94.0 ft.95.0 ft.
Traffic pattern: leftleft
Runway heading: 048 magnetic, 043 true228 magnetic, 223 true
Obstructions: 66 ft. tree, 541 ft. from runway, 101 ft. right of centerline, 8:1 slope to clear
ROAD AT END OF RUNWAY 4
79 ft. tree, 760 ft. from runway, 188 ft. right of centerline, 9:1 slope to clear

Airport Ownership and Management from official FAA records

Ownership: Publicly-owned
Owner: TOWN OF HOLLY HILL
PO BOX 1108
HOLLY HILL, SC 29059
Phone 803-496-3330
Manager: LAMAR DAY
8423 OLD STATE ROAD SUITE 1
HOLLY HILL, SC 29059
Phone (803) 378-5239

Airport Operational Statistics

Aircraft based on the field: 16
Single engine airplanes: 15
Ultralights: 1
    
Aircraft operations: avg 63/week *
76% local general aviation
24% transient general aviation
* for 12-month period ending 27 September 2017

Additional Remarks

FOR CD CTC CHARLESTON APCH AT 843-414-2832.

Instrument Procedures

There are no published instrument procedures at 5J5.

Some nearby airports with instrument procedures:

6J2 - St George Airport (9 nm SW)
KDYB - Summerville Airport (15 nm S)
KMKS - Berkeley County Airport (19 nm E)
KMNI - Santee Cooper Regional Airport (20 nm NE)
KOGB - Orangeburg Municipal Airport (25 nm W)
 
Loc | Ops | Rwys | IFR | FBO | Links
Com | Nav | Svcs | Stats | Notes
Area around 5J5 (Holly Hill Airport)
 
Road maps at: MapQuest Bing Google
 
Aerial photo
WARNING: Photo may not be current or correct
Aerial photo of 5J5 (Holly Hill Airport)
Do you have a better or more recent aerial photo of Holly Hill Airport that you would like to share? If so, please send us your photo.

 
Sectional chart

 
Airport distance calculator
Flying to Holly Hill Airport? Find the distance to fly.

From to 5J5

Sunrise and sunset
Times for 20-Apr-2019
 Local
(UTC-4)
 Zulu
(UTC)
Morning civil twilight06:2110:21
Sunrise06:4610:46
Sunset19:5523:55
Evening civil twilight20:2000:20

Current date and time
Zulu (UTC)  20-Apr-2019 21:29:30
Local (UTC-4)  20-Apr-2019 17:29:30
 
METAR
KDYB 
15nm S 
202115Z AUTO 27007G17KT 10SM SCT048 BKN070 16/05 A2985 RMK AO1
KMKS 
19nm E 
202115Z AUTO 25005KT 10SM SCT050 OVC070 16/02 A2984 RMK AO2
KMNI 
20nm NE 
202115Z AUTO 26010G15KT 190V300 10SM SCT045 SCT050 BKN060 15/05 A2982 RMK AO2
KOGB 
25nm NW 
202053Z AUTO 24016G23KT 10SM SCT042 BKN050 OVC065 14/05 A2982 RMK AO2 SLP096 60001 T01390050 58001
KRBW 
26nm SW 
202115Z AUTO 25009G14KT 220V280 10SM BKN070 15/05 A2985 RMK AO2
KCHS 
30nm SE 
202056Z 27012G18KT 10SM FEW060 SCT200 18/04 A2982 RMK AO2 SLP098 T01780044 53002
TAF
KOGB 
25nm NW 
201736Z 2018/2118 22015G25KT P6SM -SHRA BKN040 FM202200 26010G18KT P6SM BKN050 FM210000 26010KT P6SM BKN040 FM210600 21008KT P6SM SCT035 FM211300 28007KT P6SM FEW250
KCHS 
30nm SE 
201942Z 2020/2118 27015G25KT P6SM BKN060 FM210100 25007KT P6SM FEW250 FM211400 28010KT P6SM SCT040
NOTAMs
Click for the latest NOTAMs
NOTAMs are issued by the DoD/FAA and will open in a separate window not controlled by AirNav.

 

 
 

Would you like to see your business listed on this page?

 If your business provides an interesting product or service to pilots, flight crews, aircraft, or users of the Holly Hill Airport, you should consider listing it here.  To start the listing process, click on the button below
 
Add a business
 

Other Pages about Holly Hill Airport

Update a link
 
Copyright © AirNav, LLC. All rights reserved. Privacy Policy  Contact